Weather History for South Haven, MI

Change the Weather History Date:

Tuesday, October 23, 2012

  Actual Average (KBIV) Record (KBIV)
Temperature  
Mean Temperature 62 °F 50 °F  
Max Temperature 66 °F 59 °F 81 °F (1963)
Min Temperature 58 °F 42 °F 23 °F (1969)
Degree Days  
Heating Degree Days 3 15  
Month to date heating degree days 265  
Since 1 July heating degree days 395  
Cooling Degree Days 0 0  
Month to date cooling degree days 10  
Year to date cooling degree days 692  
Growing Degree Days 12 (Base 50)    
Moisture  
Dew Point 61 °F    
Average Humidity 94    
Maximum Humidity 100    
Minimum Humidity 86    
Precipitation  
Precipitation 0.00 in 0.13 in 1.87 in (1959)
Month to date precipitation 2.60  
Year to date precipitation 29.71  
Sea Level Pressure  
Sea Level Pressure 29.93 in    
Wind  
Wind Speed 4 mph (SSW)    
Max Wind Speed 10 mph    
Max Gust Speed -    
Visibility 6 miles    
Events Fog , Rain    
T = Trace of Precipitation, MM = Missing Value Source: NWS Daily Summary

Daily Weather History Graph

Daily Weather History Graph

Search for Another Location

Airport:

Trip Planner

Search our weather history database for the weather conditions in past years. The results will help you decide how hot, cold, wet, or windy it might be!

Date:

Astronomy

Oct. 23, 2012 Rise Set
Actual Time 8:07 AM EDT 6:49 PM EDT
Civil Twilight 7:39 AM EDT 7:18 PM EDT
Nautical Twilight 7:06 AM EDT 7:51 PM EDT
Astronomical Twilight 6:33 AM EDT 8:23 PM EDT
Moon 3:39 PM EDT 1:52 AM EDT
Length of Visible Light 11h 39m
Length of Day
10h 42m
Waxing Gibbous, 66% of the Moon is Illuminated
Oct 23
Waxing Gibbous
Oct 29
Full
Nov 6
Last Quarter
Nov 13
New
Nov 20
First Quarter

Hourly Weather History & Observations

Time (EDT) Temp. Dew Point Humidity Pressure Visibility Wind Dir Wind Speed Gust Speed Precip Events Conditions
12:15 AM 62.8 °F 62.1 °F 97% 29.92 in 5.0 mi SSW 6.9 mph - N/A   Overcast
12:35 AM 63.1 °F 62.6 °F 98% 29.91 in 4.0 mi SW 8.1 mph - N/A Rain Light Rain
1:16 AM 63.9 °F 63.1 °F 97% 29.91 in 5.0 mi SW 6.9 mph - N/A   Overcast
1:35 AM 64.2 °F 63.3 °F 97% 29.91 in 7.0 mi SW 3.5 mph - N/A   Overcast
2:15 AM 64.4 °F 63.3 °F 96% 29.91 in 10.0 mi WSW 8.1 mph - N/A   Overcast
2:35 AM 64.2 °F 62.6 °F 94% 29.90 in 10.0 mi West 6.9 mph - N/A   Overcast
2:55 AM 63.3 °F 61.9 °F 95% 29.90 in 10.0 mi West 6.9 mph - N/A   Overcast
3:15 AM 62.2 °F 61.2 °F 96% 29.91 in 5.0 mi WNW 5.8 mph - N/A   Overcast
3:35 AM 61.3 °F 60.4 °F 97% 29.91 in 4.0 mi WNW 4.6 mph - N/A   Overcast
3:55 AM 60.8 °F 59.9 °F 97% 29.91 in 0.8 mi West 3.5 mph - N/A   Overcast
4:15 AM 60.4 °F 59.9 °F 98% 29.91 in 0.5 mi WSW 3.5 mph - N/A Fog Fog
4:35 AM 60.1 °F 59.9 °F 99% 29.92 in 0.5 mi WNW 3.5 mph - N/A Fog Fog
4:55 AM 59.5 °F 59.2 °F 99% 29.92 in 0.5 mi West 4.6 mph - N/A Fog Fog
5:15 AM 59.4 °F 59.0 °F 99% 29.92 in 0.5 mi Calm Calm - N/A Fog Fog
5:35 AM 59.2 °F 59.0 °F 99% 29.92 in 0.2 mi Calm Calm - N/A Fog Fog
5:55 AM 59.0 °F 58.6 °F 99% 29.93 in 0.2 mi Calm Calm - N/A Fog Fog
6:15 AM 58.6 °F 58.3 °F 99% 29.92 in 0.2 mi Calm Calm - N/A Fog Fog
6:35 AM 58.5 °F 58.1 °F 99% 29.92 in 0.2 mi Calm Calm - N/A Fog Fog
6:55 AM 58.3 °F 58.1 °F 99% 29.92 in 0.2 mi Calm Calm - N/A Fog Fog
7:35 AM 58.5 °F 58.1 °F 99% 29.92 in 0.5 mi Calm Calm - N/A Fog Fog
7:55 AM 58.6 °F 58.3 °F 99% 29.92 in 0.5 mi Calm Calm - N/A Fog Fog
8:15 AM 58.6 °F 58.5 °F 99% 29.91 in 0.5 mi ENE 4.6 mph - N/A Fog Fog
8:35 AM 59.0 °F 58.6 °F 99% 29.93 in 0.2 mi Calm Calm - N/A Fog Fog
8:55 AM 59.0 °F 59.0 °F 100% 29.95 in 0.2 mi Calm Calm - N/A Fog Fog
9:14 AM 59.0 °F 59.0 °F 100% 29.96 in 0.8 mi SE 3.5 mph - N/A   Overcast
9:35 AM 59.0 °F 59.0 °F 100% 29.96 in 2.5 mi East 3.5 mph - N/A   Overcast
9:55 AM 59.5 °F 59.2 °F 99% 29.96 in 7.0 mi Calm Calm - N/A   Overcast
10:15 AM 59.9 °F 59.4 °F 98% 29.96 in 5.0 mi ESE 3.5 mph - N/A   Overcast
10:35 AM 60.3 °F 59.9 °F 99% 29.97 in 7.0 mi Calm Calm - N/A   Overcast
10:55 AM 61.0 °F 60.6 °F 99% 29.97 in 5.0 mi Calm Calm - N/A   Overcast
11:15 AM 61.7 °F 61.0 °F 97% 29.96 in 4.0 mi Calm Calm - N/A   Overcast
11:55 AM 63.5 °F 61.9 °F 94% 29.95 in 7.0 mi South 4.6 mph - N/A   Overcast
12:15 PM 63.7 °F 61.7 °F 93% 29.94 in 7.0 mi Calm Calm - N/A   Overcast
12:35 PM 64.0 °F 61.5 °F 91% 29.94 in 10.0 mi Calm Calm - N/A   Overcast
12:55 PM 64.9 °F 61.9 °F 90% 29.94 in 10.0 mi South 4.6 mph - N/A   Mostly Cloudy
1:15 PM 65.5 °F 61.5 °F 87% 29.94 in 10.0 mi SSW 6.9 mph - N/A   Overcast
1:35 PM 64.8 °F 61.3 °F 89% 29.94 in 10.0 mi SSW 4.6 mph - N/A   Overcast
1:55 PM 64.6 °F 61.3 °F 89% 29.93 in 10.0 mi South 4.6 mph - N/A   Overcast
2:15 PM 64.0 °F 61.7 °F 92% 29.92 in 10.0 mi Calm Calm - N/A   Overcast
2:35 PM 64.0 °F 62.4 °F 94% 29.91 in 4.0 mi Calm Calm - N/A Rain Rain
2:55 PM 64.6 °F 62.8 °F 94% 29.91 in 7.0 mi Calm Calm - N/A   Overcast
3:15 PM 64.9 °F 63.5 °F 95% 29.91 in 7.0 mi South 3.5 mph - N/A   Overcast
3:35 PM 65.3 °F 63.7 °F 94% 29.92 in 5.0 mi Calm Calm - N/A   Overcast
3:55 PM 65.5 °F 63.9 °F 94% 29.92 in 7.0 mi Calm Calm - N/A   Overcast
4:15 PM 66.2 °F 63.7 °F 92% 29.91 in 7.0 mi SSW 10.4 mph - N/A Rain Light Rain
4:35 PM 66.2 °F 63.1 °F 90% 29.92 in 10.0 mi SSW 8.1 mph - N/A   Overcast
4:56 PM 66.2 °F 62.8 °F 89% 29.92 in 10.0 mi SSW 3.5 mph - N/A   Overcast
5:15 PM 66.2 °F 62.6 °F 88% 29.93 in 10.0 mi South 4.6 mph - N/A   Overcast
5:35 PM 66.2 °F 62.6 °F 88% 29.92 in 10.0 mi South 3.5 mph - N/A   Overcast
5:55 PM 66.4 °F 62.4 °F 87% 29.93 in 10.0 mi South 3.5 mph - N/A   Overcast
6:15 PM 66.4 °F 62.1 °F 86% 29.93 in 10.0 mi South 4.6 mph - N/A   Overcast
6:35 PM 66.2 °F 61.9 °F 86% 29.93 in 10.0 mi SSE 3.5 mph - N/A   Overcast
6:55 PM 65.7 °F 61.7 °F 87% 29.94 in 10.0 mi Calm Calm - N/A   Overcast
7:15 PM 65.5 °F 61.7 °F 88% 29.94 in 10.0 mi Calm Calm - N/A   Overcast
7:36 PM 64.8 °F 61.9 °F 90% 29.94 in 10.0 mi Calm Calm - N/A Rain Light Rain
7:55 PM 64.4 °F 61.9 °F 92% 29.95 in 10.0 mi East 3.5 mph - N/A   Overcast
8:15 PM 64.4 °F 61.7 °F 91% 29.95 in 10.0 mi Calm Calm - N/A   Overcast
8:35 PM 64.6 °F 61.3 °F 89% 29.95 in 10.0 mi SE 3.5 mph - N/A   Overcast
8:55 PM 64.8 °F 61.2 °F 88% 29.95 in 10.0 mi SSE 3.5 mph - N/A Rain Rain
9:15 PM 64.4 °F 61.3 °F 90% 29.95 in 10.0 mi South 4.6 mph - N/A Rain Light Rain
9:35 PM 64.4 °F 61.3 °F 90% 29.96 in 10.0 mi South 4.6 mph - N/A   Mostly Cloudy
9:55 PM 63.9 °F 61.0 °F 90% 29.96 in 10.0 mi South 5.8 mph - N/A   Mostly Cloudy
10:15 PM 64.0 °F 61.0 °F 90% 29.96 in 10.0 mi South 3.5 mph - N/A   Overcast
10:35 PM 64.2 °F 60.8 °F 89% 29.97 in 10.0 mi South 4.6 mph - N/A   Overcast
10:55 PM 63.0 °F 60.3 °F 91% 29.97 in 10.0 mi South 4.6 mph - N/A   Scattered Clouds
11:35 PM 62.6 °F 60.1 °F 91% 29.96 in 10.0 mi South 3.5 mph - N/A   Scattered Clouds
11:55 PM 61.7 °F 59.9 °F 94% 29.96 in 10.0 mi Calm Calm - N/A   Clear